This is the latest recevied weather packets stored in our database for station/object W1REE. If no packets are shown the sender has not sent any weather packets the latest 10 day(s).
| Time | Temp. | Humidity | Pressure | Rain* | Wind** | Luminosity | Snow |
|---|---|---|---|---|---|---|---|
| 1777688699 | 7.22° C | 52% | 1023 hPa | 0 mm | - | 0 W/m² | - |
| 1777688396 | 7.22° C | 53% | 1022.8 hPa | 0 mm | - | 0 W/m² | - |
| 1777688094 | 7.78° C | 53% | 1022.6 hPa | 0 mm | - | 0 W/m² | - |
| 1777687790 | 7.78° C | 53% | 1022.8 hPa | 0 mm | - | 0 W/m² | - |
| 1777687489 | 7.78° C | 54% | 1022.8 hPa | 0 mm | - | 1 W/m² | - |
| 1777687185 | 7.78° C | 52% | 1022.6 hPa | 0 mm | - | 1 W/m² | - |
| 1777686883 | 8.33° C | 51% | 1022.6 hPa | 0 mm | - | 2 W/m² | - |
| 1777686579 | 8.33° C | 51% | 1022.6 hPa | 0 mm | - | 4 W/m² | - |
| 1777686276 | 8.89° C | 50% | 1022.5 hPa | 0 mm | - | 6 W/m² | - |
| 1777685973 | 8.89° C | 50% | 1022.4 hPa | 0 mm | - | 12 W/m² | - |
| 1777685668 | 8.89° C | 48% | 1022.2 hPa | 0 mm | - | 17 W/m² | - |
| 1777685365 | 9.44° C | 48% | 1022.3 hPa | 0 mm | - | 17 W/m² | - |
| 1777685063 | 9.44° C | 47% | 1022.2 hPa | 0 mm | - | 18 W/m² | - |
| 1777684760 | 9.44° C | 47% | 1022 hPa | 0 mm | - | 20 W/m² | - |
| 1777684456 | 10° C | 45% | 1022 hPa | 0 mm | - | 23 W/m² | - |
| 1777684153 | 10.56° C | 44% | 1022.2 hPa | 0 mm | - | 26 W/m² | - |
| 1777683850 | 11.11° C | 40% | 1022 hPa | 0 mm | - | 28 W/m² | - |
| 1777683546 | 11.11° C | 40% | 1021.9 hPa | 0 mm | - | 30 W/m² | - |
| 1777683244 | 11.11° C | 39% | 1021.8 hPa | 0 mm | - | 34 W/m² | - |
| 1777682942 | 11.67° C | 38% | 1022.2 hPa | 0 mm | - | 42 W/m² | - |
| 1777682637 | 11.67° C | 33% | 1021.9 hPa | 0 mm | - | 52 W/m² | - |
| 1777682335 | 11.67° C | 33% | 1021.9 hPa | 0 mm | - | 65 W/m² | - |
| 1777682032 | 11.67° C | 33% | 1022.3 hPa | 0 mm | - | 77 W/m² | - |
| 1777681728 | 11.67° C | 32% | 1022 hPa | 0 mm | - | 74 W/m² | - |
| 1777681426 | 11.67° C | 33% | 1022 hPa | 0 mm | - | 58 W/m² | - |
* Rain latest hour (hover to see other rain measurements)
** Current wind speed in m/s (hover to see current wind gust speed)